FW7281 Weather Reports


time (UTC)temp
C
wind
direction
speed
KPH
gust
KPH
rain 1hr
cm
rain 24hr
cm
rain mn
cm
humidity
%
barometer
mb
20260505053531 13 94 0.0 0.0 0.00 0.00 0.00 69 1013.7
20260505053033 13 94 0.0 0.0 0.00 0.00 0.00 69 1013.8
20260505052531 12 94 0.0 0.0 0.00 0.00 0.00 69 1013.9
20260505052033 12 94 0.0 0.0 0.00 0.00 0.00 70 1013.9
20260505051531 12 94 0.0 0.0 0.00 0.00 0.00 69 1013.9
20260505051031 12 88 0.0 1.6 0.00 0.00 0.00 70 1013.8
20260505050530 12 88 0.0 1.6 0.00 0.00 0.00 70 1013.8
20260505041524 13 79 0.0 0.0 0.00 0.00 0.00 68 1013.9
20260505041023 13 79 0.0 0.0 0.00 0.00 0.00 68 1013.9
20260505040524 13 79 0.0 0.0 0.00 0.00 0.00 67 1013.9
20260505040022 13 79 0.0 0.0 0.00 0.00 0.00 67 1013.9
20260505035521 13 80 0.0 0.0 0.00 0.00 0.00 66 1013.9
20260505035021 13 81 0.0 0.0 0.00 0.00 0.00 67 1014.0
20260505034526 13 81 0.0 1.6 0.00 0.00 0.00 67 1014.0
20260505034021 13 80 0.0 1.6 0.00 0.00 0.00 66 1014.0
20260505033521 13 83 0.0 0.0 0.00 0.00 0.00 66 1014.0
20260505033021 13 83 0.0 3.2 0.00 0.00 0.00 66 1014.1
20260505032523 13 116 0.0 3.2 0.00 0.00 0.00 66 1014.1
20260505032020 13 122 0.0 0.0 0.00 0.00 0.00 65 1014.2
20260505031520 13 122 0.0 0.0 0.00 0.00 0.00 66 1014.2
20260505031020 13 122 0.0 0.0 0.00 0.00 0.00 65 1014.2
20260505030520 13 122 0.0 0.0 0.00 0.00 0.00 65 1014.2
20260505030036 14 122 0.0 0.0 0.00 0.00 0.00 65 1014.2
20260505025519 14 129 0.0 1.6 0.00 0.00 0.00 65 1014.2
20260505025019 14 82 0.0 1.6 0.00 0.00 0.00 64 1014.1
20260505024519 14 82 0.0 1.6 0.00 0.00 0.00 64 1014.2
20260505024019 14 82 0.0 1.6 0.00 0.00 0.00 64 1014.1
20260505023519 14 82 0.0 1.6 0.00 0.00 0.00 63 1014.2
20260505023018 14 82 0.0 1.6 0.00 0.00 0.00 64 1014.2
20260505022518 15 82 0.0 0.0 0.00 0.00 0.00 64 1014.1
20260505022018 15 81 0.0 1.6 0.00 0.00 0.00 63 1014.1
20260505021522 15 81 0.0 1.6 0.00 0.00 0.00 63 1014.1
20260505021021 15 96 0.0 0.0 0.00 0.00 0.00 63 1014.1
20260505020519 15 96 0.0 0.0 0.00 0.00 0.00 64 1014.0
20260505020019 15 97 0.0 0.0 0.00 0.00 0.00 63 1013.9
20260505015517 15 97 0.0 0.0 0.00 0.00 0.00 62 1013.9
20260505015017 15 96 0.0 0.0 0.00 0.00 0.00 63 1013.9
20260505014522 15 98 0.0 0.0 0.00 0.00 0.00 62 1013.7
20260505014017 15 96 0.0 0.0 0.00 0.00 0.00 63 1013.7
20260505013517 15 103 0.0 0.0 0.00 0.00 0.00 62 1013.6
20260505013020 15 103 0.0 0.0 0.00 0.00 0.00 62 1013.5
20260505012517 15 77 0.0 0.0 0.00 0.00 0.00 63 1013.4
20260505012017 15 77 0.0 1.6 0.00 0.00 0.00 62 1013.4
20260505011515 15 77 0.0 1.6 0.00 0.00 0.00 62 1013.4
20260505011016 16 77 0.0 0.0 0.00 0.00 0.00 61 1013.3
20260505010516 16 72 0.0 0.0 0.00 0.00 0.00 60 1013.4
20260505010015 16 72 0.0 0.0 0.00 0.00 0.00 60 1013.4
20260505005517 16 72 0.0 0.0 0.00 0.00 0.00 60 1013.4
20260505005015 16 72 0.0 1.6 0.00 0.00 0.00 59 1013.2
20260505004528 16 98 0.0 0.0 0.00 0.00 0.00 59 1013.3
20260505004015 16 104 0.0 0.0 0.00 0.00 0.00 57 1013.1
20260505003514 17 105 0.0 0.0 0.00 0.00 0.00 57 1013.0
20260505003014 17 105 0.0 0.0 0.00 0.00 0.00 56 1013.0
20260505002514 17 105 0.0 0.0 0.00 0.00 0.00 55 1012.8
20260505002014 18 105 0.0 0.0 0.00 0.00 0.00 53 1012.8
20260505001515 18 105 0.0 0.0 0.00 0.00 0.00 52 1012.8
20260505001014 18 105 0.0 0.0 0.00 0.00 0.00 52 1012.8
20260505000518 18 105 0.0 0.0 0.00 0.00 0.00 51 1012.8
20260505000114 18 105 0.0 0.0 0.00 0.00 0.00 50 1012.8
20260504235513 19 115 0.0 0.0 0.00 0.00 0.00 51 1012.7
20260504235013 19 115 0.0 0.0 0.00 0.00 0.00 48 1012.6
20260504234515 20 115 0.0 0.0 0.00 0.00 0.00 48 1012.6
20260504234013 20 115 0.0 0.0 0.00 0.00 0.00 50 1012.6
20260504233513 20 2 0.0 1.6 0.00 0.00 0.00 46 1012.5
20260504233017 20 107 0.0 1.6 0.00 0.00 0.00 45 1012.5
20260504232512 20 165 0.0 0.0 0.00 0.00 0.00 44 1012.5
20260504232014 20 165 0.0 0.0 0.00 0.00 0.00 46 1012.4
20260504231512 20 165 0.0 0.0 0.00 0.00 0.00 44 1012.4
20260504231012 20 165 0.0 0.0 0.00 0.00 0.00 43 1012.3
20260504230515 21 165 0.0 1.6 0.00 0.00 0.00 40 1012.3
20260504230011 21 129 0.0 1.6 0.00 0.00 0.00 40 1012.3
20260504225511 21 138 0.0 1.6 0.00 0.00 0.00 40 1012.3
20260504225010 21 136 0.0 3.2 0.00 0.00 0.00 42 1012.3
20260504224511 21 136 0.0 3.2 0.00 0.00 0.00 40 1012.4
20260504224011 21 77 0.0 1.6 0.00 0.00 0.00 40 1012.4
20260504223510 21 70 0.0 0.0 0.00 0.00 0.00 42 1012.4
20260504223010 21 91 0.0 1.6 0.00 0.00 0.00 40 1012.4
20260504222509 21 91 0.0 1.6 0.00 0.00 0.00 41 1012.5
20260504222009 21 115 0.0 1.6 0.00 0.00 0.00 37 1012.5
20260504221509 21 157 0.0 1.6 0.00 0.00 0.00 37 1012.5
20260504221010 21 338 0.0 1.6 0.00 0.00 0.00 38 1012.5
20260504220510 21 101 0.0 1.6 0.00 0.00 0.00 37 1012.5
20260504220009 22 86 0.0 1.6 0.00 0.00 0.00 38 1012.6
20260504215509 22 303 0.0 1.6 0.00 0.00 0.00 36 1012.5
20260504215013 22 312 0.0 1.6 0.00 0.00 0.00 36 1012.5
20260504214510 22 319 0.0 1.6 0.00 0.00 0.00 38 1012.6
20260504214009 22 340 0.0 1.6 0.00 0.00 0.00 39 1012.5
20260504213511 22 31 0.0 1.6 0.00 0.00 0.00 37 1012.5
20260504213021 22 50 0.0 0.0 0.00 0.00 0.00 39 1012.5
20260504212508 22 324 0.0 0.0 0.00 0.00 0.00 36 1012.5
20260504212009 22 317 0.0 3.2 0.00 0.00 0.00 37 1012.5
20260504211510 22 89 0.0 3.2 0.00 0.00 0.00 34 1012.5
20260504211008 22 321 0.0 1.6 0.00 0.00 0.00 37 1012.4
20260504210511 22 332 0.0 1.6 0.00 0.00 0.00 36 1012.4
20260504210007 23 325 0.0 1.6 0.00 0.00 0.00 31 1012.4
20260504205507 23 285 0.0 1.6 0.00 0.00 0.00 34 1012.4
20260504205006 23 285 0.0 1.6 0.00 0.00 0.00 33 1012.4
20260504204508 23 285 0.0 1.6 0.00 0.00 0.00 32 1012.4
20260504204005 22 312 0.0 0.0 0.00 0.00 0.00 37 1012.5
20260504203505 22 309 0.0 0.0 0.00 0.00 0.00 36 1012.5
20260504203005 22 331 0.0 1.6 0.00 0.00 0.00 34 1012.6
20260504202504 22 319 0.0 1.6 0.00 0.00 0.00 36 1012.5
20260504202004 23 336 0.0 1.6 0.00 0.00 0.00 34 1012.6
20260504201502 23 352 0.0 1.6 0.00 0.00 0.00 37 1012.7
20260504201002 22 54 0.0 1.6 0.00 0.00 0.00 38 1012.7
20260504200600 22 120 0.0 1.6 0.00 0.00 0.00 39 1012.8
20260504195558 22 316 0.0 1.6 0.00 0.00 0.00 40 1013.0
20260504195058 22 233 0.0 1.6 0.00 0.00 0.00 39 1013.0
20260504194604 22 236 0.0 1.6 0.00 0.00 0.00 38 1013.1
20260504194056 22 235 0.0 1.6 0.00 0.00 0.00 38 1013.1
20260504193555 22 232 0.0 1.6 0.00 0.00 0.00 39 1013.2
20260504193056 22 139 0.0 0.0 0.00 0.00 0.00 39 1013.3
20260504192554 22 139 0.0 1.6 0.00 0.00 0.00 39 1013.4
20260504192054 22 207 0.0 1.6 0.00 0.00 0.00 37 1013.6
20260504191613 22 252 0.0 1.6 0.00 0.00 0.00 39 1013.6
20260504191052 22 233 0.0 1.6 0.00 0.00 0.00 41 1013.6
20260504190551 22 244 0.0 1.6 0.00 0.00 0.00 41 1013.7
20260504190050 22 236 0.0 1.6 0.00 0.00 0.00 45 1013.7
20260504185549 22 259 0.0 1.6 0.00 0.00 0.00 40 1013.7
20260504185048 22 236 0.0 1.6 0.00 0.00 0.00 41 1013.9
20260504184555 22 260 0.0 1.6 0.00 0.00 0.00 40 1014.0
20260504184047 22 254 0.0 1.6 0.00 0.00 0.00 44 1014.0
20260504183546 22 276 0.0 1.6 0.00 0.00 0.00 41 1014.1
20260504183046 21 252 0.0 1.6 0.00 0.00 0.00 42 1014.1
20260504182544 21 250 0.0 1.6 0.00 0.00 0.00 40 1014.1
20260504182044 21 302 0.0 1.6 0.00 0.00 0.00 44 1014.2
20260504181542 21 150 0.0 1.6 0.00 0.00 0.00 45 1014.3
20260504181041 21 152 0.0 1.6 0.00 0.00 0.00 42 1014.4
20260504180543 21 250 0.0 1.6 0.00 0.00 0.00 45 1014.5
20260504180038 21 82 0.0 1.6 0.00 0.00 0.00 42 1014.6
20260504175538 21 259 0.0 1.6 0.00 0.00 0.00 43 1014.6
20260504175036 20 255 0.0 1.6 0.00 0.00 0.00 44 1014.7
20260504174535 21 50 0.0 3.2 0.00 0.00 0.00 43 1014.8
20260504174035 21 56 0.0 1.6 0.00 0.00 0.00 44 1015.0
20260504173534 20 333 0.0 1.6 0.00 0.00 0.00 46 1015.0
20260504173034 20 245 0.0 1.6 0.00 0.00 0.00 46 1014.9
20260504172534 20 139 0.0 1.6 0.00 0.00 0.00 43 1014.9
20260504172032 20 243 0.0 1.6 0.00 0.00 0.00 44 1015.1
20260504171532 20 252 0.0 3.2 0.00 0.00 0.00 44 1015.2
20260504171031 20 252 0.0 3.2 0.00 0.00 0.00 45 1015.2
20260504170531 20 69 0.0 1.6 0.00 0.00 0.00 43 1015.3
20260504151006 16 138 0.0 1.6 0.00 0.00 0.00 59 1017.1
20260504150509 16 134 0.0 0.0 0.00 0.00 0.00 62 1017.3
20260504141054 11 124 0.0 0.0 0.00 0.00 0.00 69 1017.8
20260504140550 10 122 0.0 1.6 0.00 0.00 0.00 72 1017.8
20260504130535 6 190 0.0 0.0 0.00 0.00 0.00 85 1017.4
20260504110524 2 153 0.0 0.0 0.00 0.00 0.00 92 1016.7
20260504100519 3 154 0.0 0.0 0.00 0.00 0.00 91 1016.8
20260504081513 3 148 0.0 0.0 0.00 0.00 0.00 90 1016.7
20260504081016 3 148 0.0 0.0 0.00 0.00 0.00 90 1016.6
20260504080512 3 148 0.0 0.0 0.00 0.00 0.00 89 1016.5
20260504060107 5 148 0.0 0.0 0.00 0.00 0.00 82 1016.8